[[{"header":{"parameterUnit":"m.s-1","parameterCategory":1,"la1":30.2991,"la2":30.254,"lo1":-89.0895,"lo2":-89.0444,"dy":0.0017,"dx":0.0017,"nx":28,"ny":28,"refTime":"2023-10-16T03:00:00:Z","depth":0,"parameterNumber":2,"parameterNumberName":"U-component_of_WINDS"},"data":[0,0,0,0,0,0,0,0,0,0,0,0,0,0,0,0,0,0,0,0,0,0,0,0,0,0,0,0,0,0,0,0,0,0,0,0,0,0,0,0,0,0,0,0,0,0,0,0,0,0,0,0,0,0,0,0,0,0,1.5274,1.5274,0,1.5206,1.5205,1.5204,1.5161,1.516,1.516,1.516,1.5087,1.5085,1.5083,0,0,0,0,0,0,0,0,0,0,0,0,0,1.5366,1.5365,1.5275,1.5274,1.5273,1.5206,1.5205,1.5204,1.5161,1.516,1.516,1.516,1.5087,1.5085,1.5083,0,0,0,0,0,0,0,0,0,0,0,0,0,1.5315,1.5364,1.5275,1.5243,1.524,1.5206,1.5205,1.5204,1.5161,1.516,1.516,1.516,1.5088,1.5085,1.5083,1.5074,0,0,1.5075,1.5074,0,0,0,0,0,0,0,0,1.5318,1.5311,1.5249,1.5245,1.5241,1.5191,1.521,1.516,1.5161,1.5191,1.516,1.5159,1.5122,1.5116,1.5104,1.5071,1.5068,1.5075,1.5073,1.5072,1.5071,0,0,0,0,0,0,0,1.5321,1.5314,1.5247,1.5248,1.5243,1.5232,1.5224,1.5201,1.5159,1.5188,1.5185,1.5177,1.5119,1.5107,1.5102,1.5066,1.5075,1.5072,1.5071,1.507,1.5022,1.5022,0,0,0,0,0,0,1.533,1.5317,1.5249,1.5245,1.5279,1.523,1.5222,1.5208,1.5159,1.5151,1.5178,1.5175,1.5111,1.5105,1.5099,1.5085,1.5072,1.507,1.5068,1.5022,1.5022,1.5022,0,0,0,0,0,0,1.5332,1.5325,1.5252,1.528,1.527,1.5229,1.5214,1.5207,1.5194,1.5151,1.5143,1.5172,1.5111,1.5103,1.5081,1.5082,1.5068,1.5066,1.5021,1.5022,1.5022,1.5057,0,0,0,0,0,0,1.5335,1.5326,1.5322,1.5281,1.5269,1.5236,1.5214,1.5205,1.519,1.5186,1.5144,1.5137,1.511,1.5085,1.5078,1.5078,1.5064,1.5021,1.5022,1.5022,1.5056,1.5059,1.5062,0,0,0,0,0,1.5339,1.5335,1.5322,1.5314,1.5264,1.5236,1.5229,1.5199,1.519,1.5186,1.5159,1.5138,1.5083,1.5083,1.5075,1.5074,1.5021,1.5021,1.5022,1.5055,1.5058,1.5062,0,0,0,0,0,0,1.5376,1.5328,1.5314,1.5297,1.5271,1.5229,1.5222,1.5204,1.5179,1.5177,1.5139,1.513,1.5112,1.5091,1.5091,1.5063,1.505,1.5049,1.5077,1.508,1.5083,1.5088,1.5062,0,0,0,0,0,1.5383,1.5365,1.5324,1.5312,1.53,1.5264,1.525,1.5229,1.52,1.5189,1.516,1.5132,1.5108,1.5093,1.5069,1.5053,1.5043,1.5049,1.5052,1.5054,1.5053,1.5043,1.5045,1.5024,1.5024,1.5024,0,0,1.5396,1.5367,1.5358,1.5319,1.5296,1.5277,1.5255,1.5236,1.5221,1.5185,1.5163,1.5141,1.5107,1.5088,1.5078,1.507,1.5057,1.5055,1.5057,1.5055,1.5044,1.5045,1.5047,1.5025,1.5025,1.5025,0,0,1.5409,1.5387,1.5374,1.5352,1.5319,1.5295,1.5292,1.5252,1.5237,1.5214,1.5187,1.5168,1.5129,1.5106,1.5089,1.5095,1.5074,1.5088,1.5102,1.5092,1.5093,1.5095,1.5096,1.5097,1.5087,1.5087,1.5088,0,1.5429,1.54,1.537,1.5353,1.5336,1.5305,1.5291,1.5271,1.5231,1.522,1.5212,1.5161,1.5136,1.5111,1.5113,1.51,1.5095,1.5092,1.5096,1.5097,1.5097,1.5098,1.5098,1.5089,1.5089,1.5089,1.5089,0,1.5426,1.5406,1.54,1.5363,1.5346,1.5331,1.5297,1.5284,1.5265,1.5241,1.5218,1.5187,1.5156,1.5149,1.513,1.5121,1.5117,1.5103,1.5088,1.5102,1.5101,1.5101,1.5092,1.5091,1.5091,1.509,0,0,1.546,1.5407,1.5405,1.5388,1.5349,1.5333,1.5316,1.5287,1.5275,1.5249,1.5233,1.5201,1.5188,1.5168,1.5147,1.5138,1.5143,1.5125,1.5124,1.5128,1.513,1.514,1.5141,1.5131,1.5131,1.513,1.5133,0,1.5466,1.5435,1.5408,1.5386,1.5367,1.5338,1.5323,1.5297,1.5275,1.5255,1.5231,1.5208,1.5193,1.5182,1.5172,1.5145,1.5143,1.5145,1.5114,1.5114,1.5122,1.5141,1.5151,1.5155,1.5133,1.5133,1.5133,0,1.547,1.5445,1.5422,1.5385,1.5376,1.5364,1.5334,1.5316,1.5286,1.5271,1.525,1.5227,1.5207,1.5196,1.5168,1.517,1.5156,1.5141,1.514,1.5135,1.5123,1.5135,1.5155,1.5155,1.5132,1.5132,1.5132,0,1.5495,1.5457,1.5438,1.5424,1.5381,1.5373,1.5354,1.5324,1.5308,1.5282,1.5271,1.5244,1.5228,1.5207,1.5177,1.5172,1.5151,1.5138,1.5137,1.5138,1.5133,1.5133,1.515,1.5126,1.5126,1.5126,1.5126,0,1.5505,1.5491,1.5449,1.5437,1.5421,1.539,1.5375,1.5353,1.5327,1.531,1.5283,1.5267,1.523,1.5209,1.5186,1.5166,1.5159,1.5145,1.5139,1.5147,1.5149,1.5136,1.5135,1.5127,1.5126,1.5126,1.5126,0,1.553,1.5501,1.5478,1.544,1.543,1.5419,1.5386,1.5373,1.535,1.5329,1.5322,1.5286,1.526,1.5229,1.5194,1.5178,1.516,1.5151,1.517,1.5166,1.5166,1.5166,1.5174,1.5173,1.5152,1.5153,1.5153,0,1.5537,1.5526,1.5487,1.5474,1.5456,1.5436,1.5419,1.5388,1.5372,1.5338,1.5329,1.5302,1.5278,1.524,1.5209,1.5182,1.5172,1.5177,1.5167,1.5176,1.517,1.5171,1.5169,1.5178,1.5179,1.5179,1.5179,0,1.5552,1.5539,1.5517,1.5491,1.5472,1.545,1.5426,1.5417,1.538,1.5364,1.5338,1.532,1.5285,1.5258,1.5227,1.5207,1.5187,1.5183,1.5181,1.5188,1.5199,1.5192,1.5175,1.5182,1.5182,1.5182,1.5182,1.5182,1.5568,1.5557,1.5527,1.5504,1.5483,1.5461,1.5447,1.5423,1.5401,1.537,1.5353,1.5328,1.5298,1.5254,1.5235,1.5215,1.5207,1.5205,1.5204,1.5203,1.5205,1.5204,1.5209,1.5209,1.5209,1.5209,1.5208,0,1.5581,1.556,1.5539,1.5507,1.5489,1.5473,1.5446,1.5431,1.5409,1.5384,1.5362,1.5332,1.5306,1.5275,1.5246,1.5236,1.5226,1.5229,1.5229,1.5225,1.5214,1.5218,1.5238,1.5238,1.5238,1.5238,1.5238,1.5238,1.5585,1.5565,1.5548,1.5518,1.5497,1.5473,1.5459,1.5438,1.5417,1.5386,1.5365,1.5345,1.5316,1.5286,1.5261,1.5253,1.5243,1.5249,1.5238,1.5228,1.5225,1.5223,1.5226,1.5248,1.5248,1.5249,1.5249,1.5249]},{"header":{"parameterUnit":"m.s-1","parameterCategory":1,"la1":30.2991,"la2":30.254,"lo1":-89.0895,"lo2":-89.0444,"dy":0.0017,"dx":0.0017,"nx":28,"ny":28,"refTime":"2023-10-16T03:00:00:Z","depth":0,"parameterNumber":3,"parameterNumberName":"V-component_of_WINDS"},"data":[0,0,0,0,0,0,0,0,0,0,0,0,0,0,0,0,0,0,0,0,0,0,0,0,0,0,0,0,0,0,0,0,0,0,0,0,0,0,0,0,0,0,0,0,0,0,0,0,0,0,0,0,0,0,0,0,0,0,-5.2184,-5.2186,0,-5.24,-5.2403,-5.2405,-5.234,-5.2335,-5.2331,-5.2327,-5.2544,-5.2554,-5.2564,0,0,0,0,0,0,0,0,0,0,0,0,0,-5.171,-5.1719,-5.2183,-5.2186,-5.2189,-5.24,-5.2403,-5.2406,-5.2341,-5.2335,-5.233,-5.2325,-5.2541,-5.2553,-5.2565,0,0,0,0,0,0,0,0,0,0,0,0,0,-5.192,-5.1722,-5.2183,-5.2182,-5.2184,-5.2399,-5.2403,-5.2407,-5.2342,-5.2335,-5.2328,-5.2322,-5.2537,-5.2551,-5.2566,-5.2794,0,0,-5.2612,-5.2619,0,0,0,0,0,0,0,0,-5.1908,-5.1938,-5.2179,-5.2182,-5.2185,-5.2336,-5.2316,-5.2536,-5.2344,-5.2282,-5.2326,-5.2319,-5.248,-5.2499,-5.2555,-5.2804,-5.2814,-5.2613,-5.2622,-5.2629,-5.2633,0,0,0,0,0,0,0,-5.1894,-5.1928,-5.2269,-5.2183,-5.2187,-5.217,-5.2192,-5.2357,-5.2416,-5.2287,-5.2282,-5.2309,-5.248,-5.254,-5.2559,-5.2817,-5.2613,-5.2626,-5.2636,-5.2641,-5.3266,-5.3274,0,0,0,0,0,0,-5.1878,-5.1916,-5.2262,-5.2276,-5.2027,-5.2184,-5.2209,-5.2294,-5.2414,-5.2426,-5.2315,-5.2305,-5.2518,-5.2542,-5.2567,-5.2843,-5.2629,-5.2643,-5.2651,-5.3259,-5.3268,-5.3276,0,0,0,0,0,0,-5.1868,-5.1909,-5.2253,-5.2095,-5.2137,-5.2199,-5.2296,-5.2302,-5.2362,-5.2436,-5.2445,-5.2366,-5.2514,-5.2546,-5.2739,-5.285,-5.265,-5.2663,-5.325,-5.3262,-5.3272,-5.3398,0,0,0,0,0,0,-5.1855,-5.1906,-5.1994,-5.2097,-5.2146,-5.2424,-5.2303,-5.2311,-5.2389,-5.2379,-5.2486,-5.2497,-5.2511,-5.2717,-5.2754,-5.2867,-5.2675,-5.324,-5.3255,-5.3268,-5.3384,-5.3412,-5.3436,0,0,0,0,0,-5.1838,-5.202,-5.1999,-5.2041,-5.2258,-5.243,-5.2458,-5.2471,-5.2398,-5.2487,-5.2534,-5.2494,-5.2831,-5.2737,-5.2778,-5.2898,-5.3233,-5.3251,-5.3267,-5.3372,-5.3406,-5.3435,0,0,0,0,0,0,-5.1926,-5.2033,-5.2011,-5.2232,-5.2323,-5.2419,-5.2531,-5.2507,-5.2619,-5.2605,-5.2615,-5.264,-5.2839,-5.2887,-5.278,-5.3125,-5.3021,-5.3048,-5.3087,-5.312,-5.3146,-5.3131,-5.2687,0,0,0,0,0,-5.1972,-5.2104,-5.2189,-5.2376,-5.2422,-5.2469,-5.2545,-5.2548,-5.2641,-5.2679,-5.274,-5.2831,-5.2958,-5.3041,-5.3162,-5.339,-5.3413,-5.3492,-5.3518,-5.3539,-5.3562,-5.3688,-5.3725,-5.3332,-5.3332,-5.3332,0,0,-5.2066,-5.2141,-5.2223,-5.2395,-5.2466,-5.2602,-5.2502,-5.265,-5.2751,-5.2701,-5.2888,-5.2936,-5.3039,-5.3251,-5.3347,-5.3297,-5.3675,-5.3561,-5.3577,-5.3589,-5.3709,-5.3746,-5.3779,-5.3344,-5.3342,-5.334,0,0,-5.2309,-5.2378,-5.2542,-5.2616,-5.2724,-5.2754,-5.2794,-5.2894,-5.2925,-5.3114,-5.3079,-5.3199,-5.3416,-5.3492,-5.3558,-5.3831,-5.3798,-5.3869,-5.4006,-5.4129,-5.416,-5.4187,-5.4286,-5.4321,-5.3892,-5.3892,-5.3892,0,-5.2413,-5.2618,-5.2629,-5.2781,-5.2858,-5.2821,-5.2987,-5.3057,-5.3199,-5.3253,-5.3194,-5.3469,-5.3535,-5.3765,-5.3832,-5.3886,-5.3932,-5.3858,-5.4154,-5.4182,-5.4208,-5.4302,-5.4339,-5.39,-5.3899,-5.3898,-5.3898,0,-5.2741,-5.2883,-5.3002,-5.3143,-5.3233,-5.3391,-5.3426,-5.3516,-5.3511,-5.3547,-5.374,-5.3818,-5.3955,-5.4009,-5.4004,-5.4239,-5.4205,-5.4151,-5.4047,-5.4253,-5.4342,-5.4378,-5.3912,-5.3909,-5.3906,-5.3904,0,0,-5.3046,-5.3192,-5.3235,-5.33,-5.3417,-5.3527,-5.3683,-5.3819,-5.3896,-5.3995,-5.4127,-5.4313,-5.4264,-5.434,-5.4343,-5.4451,-5.4664,-5.4383,-5.4386,-5.4435,-5.493,-5.4972,-5.5013,-5.4642,-5.4649,-5.4655,-5.4922,0,-5.33,-5.3577,-5.3592,-5.3844,-5.3976,-5.3943,-5.4079,-5.4165,-5.4203,-5.432,-5.4361,-5.4494,-5.4418,-5.4464,-5.4569,-5.4616,-5.4764,-5.4596,-5.4765,-5.4771,-5.4743,-5.5059,-5.5104,-5.5352,-5.4956,-5.4962,-5.4967,0,-5.3634,-5.3746,-5.4011,-5.4112,-5.4168,-5.429,-5.4417,-5.4529,-5.4626,-5.4646,-5.4732,-5.472,-5.488,-5.4769,-5.499,-5.4876,-5.4945,-5.4979,-5.4989,-5.5007,-5.4883,-5.5088,-5.5431,-5.547,-5.5021,-5.5017,-5.5013,0,-5.3833,-5.4049,-5.4236,-5.4292,-5.4413,-5.45,-5.4554,-5.4645,-5.4726,-5.4836,-5.4889,-5.5014,-5.5084,-5.5181,-5.5204,-5.5121,-5.5425,-5.5316,-5.5446,-5.5446,-5.5513,-5.5509,-5.5876,-5.5555,-5.5554,-5.5554,-5.5553,0,-5.4116,-5.428,-5.4328,-5.4443,-5.4626,-5.4641,-5.4821,-5.4869,-5.4951,-5.5074,-5.5051,-5.5168,-5.519,-5.531,-5.5329,-5.551,-5.554,-5.5561,-5.5564,-5.5565,-5.5562,-5.5612,-5.5596,-5.5564,-5.5561,-5.556,-5.5558,0,-5.437,-5.4408,-5.461,-5.4709,-5.4738,-5.4868,-5.4952,-5.5063,-5.5098,-5.5255,-5.5292,-5.5347,-5.5489,-5.5521,-5.5687,-5.57,-5.5915,-5.59,-5.5883,-5.5883,-5.6012,-5.6001,-5.6425,-5.6482,-5.6122,-5.6125,-5.6128,0,-5.4549,-5.4675,-5.4788,-5.487,-5.4929,-5.5061,-5.5145,-5.5164,-5.5252,-5.5373,-5.5469,-5.5608,-5.5721,-5.5948,-5.6002,-5.613,-5.6119,-5.6259,-5.6138,-5.6135,-5.6124,-5.6117,-5.6131,-5.6282,-5.6286,-5.6289,-5.6292,0,-5.4865,-5.4878,-5.4999,-5.5129,-5.5229,-5.5331,-5.5429,-5.5497,-5.5529,-5.5629,-5.5774,-5.5862,-5.6034,-5.6172,-5.6301,-5.6355,-5.6331,-5.6329,-5.6367,-5.637,-5.6356,-5.6367,-5.5949,-5.632,-5.6317,-5.6315,-5.6314,-5.6312,-5.5089,-5.52,-5.5297,-5.5434,-5.5509,-5.5601,-5.5711,-5.5761,-5.5883,-5.6026,-5.6029,-5.6188,-5.6282,-5.6453,-5.6515,-5.6639,-5.6596,-5.6649,-5.6663,-5.6677,-5.669,-5.6334,-5.6662,-5.6661,-5.666,-5.666,-5.6659,0,-5.5405,-5.5466,-5.5592,-5.573,-5.5838,-5.5805,-5.5911,-5.6004,-5.6144,-5.6235,-5.6347,-5.6515,-5.6649,-5.6715,-5.6848,-5.6934,-5.6926,-5.6969,-5.6964,-5.6977,-5.672,-5.6675,-5.6973,-5.6973,-5.6973,-5.6973,-5.6973,-5.6973,-5.5582,-5.5769,-5.5794,-5.6018,-5.6078,-5.6235,-5.6299,-5.6384,-5.6457,-5.6646,-5.6758,-5.68,-5.6881,-5.702,-5.7142,-5.7158,-5.7209,-5.7258,-5.7268,-5.7027,-5.6995,-5.6964,-5.6923,-5.7268,-5.7268,-5.7515,-5.7517,-5.7519]}]]